RH
94 80 67 71 100 100 97 85 85 70 73 97 95 99 100 100 84 79 94 99 99 88 86 94 62 44 72 99 90 100 98 74 95 82 90 87 63 30 16 11 6 7 9
91 83 79 64 93 100 100 100 99 95 88 79 100 83 100 100 91 100 100 85 93 100 79 77 64 99 85 100 100 100 69 70 92 58 84 78 43 21 13 6 7 8 10
100 96 87 94 100 100 100 100 100 100 100 100 99 100 90 78 90 90 88 93 88 98 81 54 62 88 99 99 100 70 89 100 78 83 81 49 23 16 9 7 8 8 9
100 100 100 100 100 100 100 100 100 100 100 95 84 80 82 72 69 66 58 62 52 62 62 93 100 100 88 100 100 100 81 84 62 77 59 26 19 10 7 9 9 9 9
100 100 100 100 100 100 100 100 100 97 92 80 77 80 69 61 44 56 53 70 59 59 100 100 100 100 100 86 100 85 81 98 44 61 32 20 13 9 7 10 11 9 9
98 89 100 100 100 100 100 100 100 91 88 100 100 100 81 86 100 100 92 96 70 76 68 70 68 78 100 100 98 74 100 95 38 36 22 17 11 8 9 12 10 9 8
100 100 100 100 94 98 87 78 75 93 100 90 74 95 100 100 100 100 100 100 100 65 66 98 100 100 100 100 99 100 86 30 36 31 18 12 12 9 11 14 10 9 8
100 100 100 100 100 96 91 95 100 100 100 100 100 100 100 100 100 100 100 98 84 90 100 100 100 100 100 100 100 80 48 30 26 17 14 12 10 13 14 14 11 10 8
100 100 100 87 68 56 56 62 74 71 69 82 86 81 92 63 70 94 100 73 81 99 100 100 100 100 100 100 77 42 27 27 19 13 11 11 12 16 16 13 11 11 10
74 66 50 47 44 59 89 84 57 75 77 100 94 95 99 94 79 74 70 65 100 100 100 100 100 100 100 98 37 24 26 22 14 12 11 9 16 19 18 14 13 11 11
83 86 64 70 71 46 56 91 83 93 100 100 95 100 75 66 63 89 100 100 100 100 100 100 100 100 100 34 22 24 20 16 11 11 10 12 20 21 17 14 14 14 14
100 100 100 100 83 89 100 100 100 100 100 100 99 78 100 94 97 100 100 100 100 100 100 100 95 100 42 19 18 17 14 10 10 10 10 17 23 21 18 16 17 16 17
80 74 86 89 94 100 100 100 100 100 94 88 79 56 57 93 100 100 100 100 100 100 94 78 80 63 24 16 13 12 10 10 9 9 13 20 24 21 19 18 20 21 21
90 100 100 100 100 100 100 100 100 100 100 94 75 76 100 100 100 100 100 100 100 92 68 66 31 22 19 12 11 9 10 10 10 10 17 22 24 22 21 21 24 27 28
100 100 100 100 100 100 100 100 100 100 100 83 84 100 100 100 100 100 100 99 33 29 41 18 17 15 11 11 8 9 10 10 10 15 20 23 24 22 23 24 29 38 41
90 87 83 85 97 100 89 84 100 100 97 100 100 100 100 100 100 100 86 41 19 20 12 12 12 10 10 8 9 9 10 10 14 18 20 22 24 23 24 28 33 44 53
72 72 63 66 75 65 52 71 72 84 86 88 100 100 100 100 100 63 24 12 16 11 10 11 10 9 9 8 9 9 10 12 19 20 20 22 22 23 25 30 38 48 56
68 82 74 62 51 46 50 55 61 77 94 99 100 100 84 64 59 16 11 10 8 8 8 7 7 8 8 9 9 9 10 18 22 20 19 21 23 22 25 31 38 59 71
64 62 53 44 39 42 50 44 41 52 50 38 24 13 7 6 7 6 7 7 8 7 6 7 8 8 8 9 8 10 16 21 24 19 20 21 23 23 24 31 44 63 80
40 40 42 43 25 14 16 9 4 4 4 4 5 5 5 5 5 5 6 6 6 6 6 6 7 7 8 8 10 15 20 23 22 20 20 22 23 24 25 28 35 59 76
33 31 10 5 3 3 3 3 3 3 3 4 4 4 4 4 4 4 5 5 5 5 6 6 6 7 9 11 16 19 22 23 21 22 21 23 24 25 24 29 34 42 51
4 4 3 3 3 3 3 3 3 3 3 3 3 3 4 4 4 4 4 5 5 5 6 7 9 11 13 16 18 20 22 21 22 23 23 24 26 26 25 28 35 41 51
3 3 3 3 3 3 3 3 3 3 3 3 3 4 4 4 5 6 7 8 9 9 10 12 13 14 14 16 18 19 21 21 22 23 25 26 27 27 28 29 30 35 45
3 4 4 4 5 5 5 5 6 6 6 6 7 7 8 8 9 9 9 9 10 10 10 11 12 13 15 16 17 19 20 21 23 25 26 28 28 29 29 30 33 35 39
7 7 7 7 7 7 7 7 8 8 8 8 8 9 9 8 8 8 9 9 10 11 12 13 14 15 16 18 18 20 21 21 22 25 27 28 30 31 32 32 32 35 42
8 7 7 6 6 6 6 6 6 7 7 7 8 8 8 8 8 9 10 11 11 12 14 14 15 16 17 18 20 21 22 23 23 24 26 28 28 30 33 34 34 35 37
Wind_Speed
47 49 48 48 50 53 53 56 58 59 63 67 73 71 69 70 70 76 84 88 92 95 96 100 104 102 102 111 116 128 133 142 152 130 114 105 98 93 85 71 62 55 50
57 53 50 53 55 60 60 63 64 64 67 71 69 71 70 74 76 82 86 89 93 97 99 104 106 111 114 117 121 132 137 142 142 121 109 108 96 86 78 68 56 47 46
63 62 60 60 60 62 65 61 58 59 62 66 69 70 72 75 80 86 89 93 96 101 100 104 102 109 121 123 125 135 143 152 126 115 110 98 90 79 70 59 51 44 41
62 63 65 67 65 64 60 58 57 61 63 67 70 75 76 82 85 90 93 96 99 101 106 114 116 120 123 134 136 142 141 142 118 109 101 92 85 73 62 52 47 41 37
63 64 61 58 58 62 65 65 67 70 73 78 82 86 90 90 92 96 102 106 109 102 110 118 121 122 124 128 146 141 141 133 114 107 95 87 75 67 56 47 43 37 35
61 59 55 59 61 63 67 74 81 83 87 92 94 98 102 106 102 109 113 118 116 112 112 114 120 124 129 135 146 136 135 127 110 99 91 79 71 63 50 44 40 34 30
60 59 63 69 69 70 76 81 86 94 94 96 101 103 106 107 108 116 118 115 119 116 118 121 129 135 137 143 142 131 124 104 99 93 82 71 66 56 47 40 35 29 27
71 70 73 70 76 81 83 84 90 93 97 101 104 105 106 112 112 113 114 117 120 120 123 127 136 139 145 141 141 127 111 99 94 84 73 66 57 51 44 37 30 26 25
61 70 73 76 79 82 86 91 93 95 97 99 107 110 111 119 120 118 114 114 121 120 124 140 146 141 148 146 134 109 98 94 85 78 67 58 50 46 41 35 27 24 24
80 82 84 83 84 93 99 100 100 104 106 107 106 98 98 99 105 110 116 122 126 134 139 144 146 148 144 138 111 100 95 86 80 71 60 52 44 42 38 32 26 24 25
81 82 84 89 95 98 99 101 109 107 112 111 117 117 116 114 111 121 131 137 136 138 142 148 150 140 134 112 103 95 87 79 72 63 55 43 40 38 35 30 25 24 25
87 91 95 100 106 109 111 114 118 116 120 121 122 121 122 124 122 129 135 137 144 151 150 147 130 131 115 101 93 86 78 72 62 54 47 39 37 34 32 28 24 24 24
96 98 103 108 112 114 114 119 122 131 131 130 132 128 121 127 135 137 140 147 149 143 132 123 121 110 99 94 87 77 68 61 54 48 39 34 33 31 29 26 24 24 24
102 108 109 111 117 117 126 130 130 135 141 141 141 134 139 137 144 150 152 149 140 128 118 117 100 95 94 86 76 67 60 54 49 43 35 30 30 27 26 25 24 25 24
112 114 117 121 120 124 126 130 134 138 140 142 142 144 149 150 152 154 148 140 121 112 109 95 93 84 81 76 67 61 52 48 43 38 32 28 27 25 25 26 25 25 24
116 118 121 125 127 130 133 134 133 138 138 135 139 145 148 150 151 147 137 119 109 104 94 88 82 76 69 68 59 53 46 42 38 35 29 26 25 24 24 26 26 27 26
124 128 132 131 135 138 139 139 139 140 139 139 142 146 148 141 138 129 117 107 103 95 85 79 74 69 64 58 53 47 42 38 36 32 28 26 25 22 24 26 28 29 28
133 134 136 139 140 141 142 141 138 137 139 139 144 147 138 127 122 112 104 95 87 83 77 71 67 62 59 52 47 41 38 35 33 31 27 25 24 23 23 26 29 32 31
135 137 140 141 140 139 139 137 136 133 131 119 111 109 105 100 97 92 86 82 79 74 68 62 59 56 51 47 41 37 34 32 31 29 27 25 25 24 24 26 31 35 35
135 136 134 133 133 124 120 109 100 96 94 93 91 90 87 84 82 79 76 71 67 64 59 55 52 48 44 41 37 33 32 30 30 29 27 27 25 25 26 27 30 38 40
126 125 115 106 101 97 93 89 85 82 81 77 75 73 72 70 69 64 63 61 58 54 50 47 44 42 40 35 33 31 31 30 29 28 28 27 28 27 26 29 32 35 38
98 91 87 84 82 80 77 75 72 69 67 65 63 61 59 58 57 55 53 51 49 47 43 40 38 37 35 33 32 30 29 30 30 28 28 28 28 29 29 29 33 36 38
81 77 74 72 70 68 66 64 63 61 59 57 55 53 51 50 48 46 45 43 42 41 38 36 36 35 34 32 30 30 30 30 30 29 28 29 30 30 30 31 32 35 38
69 66 64 62 60 59 57 56 54 53 52 51 49 47 46 45 44 43 43 42 41 40 38 36 35 34 33 32 31 31 31 31 31 31 30 30 32 33 32 32 34 36 38
63 61 61 60 58 57 56 53 52 51 51 50 49 48 47 46 46 44 42 41 40 39 38 36 35 34 33 33 33 32 33 33 33 32 33 33 34 35 35 35 35 36 40
63 61 60 60 59 58 57 55 53 52 51 50 49 48 48 47 45 43 42 40 39 38 38 37 36 35 35 35 35 35 35 35 35 34 34 35 36 37 38 39 38 39 40
Wind_Direction
279 282 283 281 284 285 284 287 286 283 284 290 295 293 293 296 293 298 301 304 306 306 308 310 312 312 314 317 317 320 320 321 323 322 320 320 319 316 311 307 299 290 281
279 278 280 278 282 284 286 288 288 284 285 289 289 287 296 296 299 305 304 305 306 310 308 307 311 314 316 316 315 317 318 322 321 319 319 320 317 315 312 307 299 288 279
281 282 285 286 284 284 287 286 284 287 286 294 293 293 296 298 301 303 305 306 305 305 306 309 309 312 314 316 315 316 321 320 320 320 318 319 317 315 310 304 297 288 276
286 286 285 286 288 283 280 291 293 295 296 300 303 305 302 306 303 302 304 306 308 307 310 314 315 312 311 317 319 317 317 321 320 318 320 319 317 312 308 303 297 289 278
276 278 280 281 279 287 289 291 299 300 305 303 304 306 308 310 308 307 307 308 311 308 310 310 308 308 310 313 316 316 317 322 317 318 316 317 314 311 306 303 297 287 277
284 285 279 282 286 287 288 291 295 298 301 303 303 304 305 306 304 305 307 311 311 310 310 311 313 315 314 312 318 317 317 316 315 313 316 316 313 311 305 304 295 286 272
278 277 280 283 288 285 290 292 294 299 300 301 302 302 303 304 300 302 304 306 308 311 315 316 314 316 318 316 319 317 317 315 314 312 314 316 312 307 305 302 293 288 279
276 278 279 279 290 289 293 294 293 295 296 296 297 299 299 300 302 302 301 302 304 311 314 315 316 313 315 315 318 315 313 313 312 313 313 313 309 305 303 297 293 289 274
273 287 285 286 290 294 294 295 300 302 304 302 299 297 296 300 299 300 301 304 309 309 308 311 315 314 313 312 315 313 312 312 312 312 312 310 306 303 300 294 291 285 275
278 286 289 288 292 295 294 297 300 298 301 304 303 297 297 298 299 303 303 304 307 309 310 311 312 311 311 313 310 311 310 309 308 311 311 305 302 300 294 290 288 282 274
283 286 284 286 288 293 297 297 301 299 299 301 301 300 300 300 302 308 311 311 309 306 308 310 309 309 312 310 309 309 308 306 307 307 307 301 299 294 289 287 285 277 270
281 282 284 286 288 290 292 295 296 296 299 300 300 301 305 306 309 307 308 307 308 308 309 307 308 310 310 306 308 307 307 306 304 305 300 298 294 289 286 285 283 274 262
283 282 285 289 288 288 292 296 295 296 298 299 300 300 301 307 306 304 305 306 307 304 304 305 307 307 304 306 306 306 306 304 302 301 296 294 288 284 282 281 277 265 259
284 284 286 287 286 285 290 291 292 294 298 299 301 303 304 304 307 307 306 306 306 305 305 304 304 303 302 304 304 305 304 301 300 295 294 290 283 279 277 275 268 258 256
282 283 283 285 285 286 289 290 290 290 294 297 301 304 303 303 302 304 304 306 303 305 304 302 302 301 301 302 303 303 301 298 294 290 290 284 277 273 271 266 257 250 250
282 283 285 287 286 285 287 289 289 289 292 294 296 297 297 299 299 301 301 301 301 302 301 302 300 300 301 299 301 300 298 293 287 287 286 279 271 270 265 259 251 239 238
282 283 284 285 285 285 286 287 289 290 291 292 294 296 296 297 298 298 299 298 299 298 298 296 296 296 297 298 297 295 293 287 284 283 282 275 268 265 259 251 245 236 230
285 286 286 286 286 286 284 285 286 288 289 289 290 291 291 291 292 292 294 293 296 295 293 293 294 295 294 294 293 291 287 282 281 279 277 272 268 264 252 246 239 232 232
285 285 284 283 283 283 283 284 284 285 287 286 287 289 288 288 289 290 291 292 291 291 290 292 291 290 291 290 287 285 280 278 275 275 274 271 266 263 253 243 237 231 225
282 285 284 284 287 287 286 285 286 286 287 286 285 284 284 285 285 287 287 287 288 288 288 288 288 288 286 283 282 279 276 273 270 272 272 269 264 261 255 248 237 227 225
288 287 286 286 287 288 287 286 286 286 285 286 285 284 283 284 284 286 286 286 286 285 286 285 284 283 280 278 277 275 272 269 267 269 271 267 264 261 253 247 243 238 227
287 288 289 289 288 288 288 288 288 287 287 286 285 284 283 283 284 284 284 283 283 283 283 282 281 278 276 275 274 271 267 265 266 266 268 266 260 259 256 247 243 240 235
291 291 291 290 290 290 290 291 291 290 290 288 287 287 285 285 284 284 283 283 282 282 282 280 278 276 274 272 270 269 266 265 265 265 266 264 260 257 256 252 248 242 238
293 293 292 292 291 291 292 292 292 291 290 289 288 287 287 286 285 283 283 283 283 282 281 279 276 274 273 270 269 268 266 264 263 263 263 263 259 257 256 252 250 249 245
296 296 296 295 294 292 291 290 289 289 288 288 288 287 286 285 284 284 283 282 281 280 280 278 275 272 271 269 268 268 266 265 262 261 261 259 256 255 255 254 251 248 247
295 294 294 293 292 292 292 292 290 288 287 287 286 286 286 285 284 283 282 281 280 279 278 276 274 272 269 267 266 266 265 265 264 263 260 258 256 253 251 253 253 250 248